Weather History for Traverse City, MI

Change the Weather History Date:

Friday, March 14, 2014

  Actual Average Record
Temperature  
Mean Temperature 38 °F 30 °F  
Max Temperature 47 °F 39 °F 81 °F (2012)
Min Temperature 29 °F 21 °F -6 °F (1963)
Degree Days  
Heating Degree Days 27 35  
Month to date heating degree days 660 524  
Since 1 July heating degree days 6382 5864  
Cooling Degree Days 0 0  
Month to date cooling degree days 0 0  
Year to date cooling degree days 0 0  
Moisture  
Dew Point 31 °F    
Average Humidity 67    
Maximum Humidity 85    
Minimum Humidity 49    
Precipitation  
Precipitation 0.10 in 0.06 in 0.66 in (1998)
Month to date precipitation 0.12 0.80  
Year to date precipitation 1.54 5.12  
Snow  
Snow 0.00 in - - ()
Snow Depth 12.00 in    
Sea Level Pressure  
Sea Level Pressure 29.53 in    
Wind  
Wind Speed 9 mph (SW)    
Max Wind Speed 18 mph    
Max Gust Speed 29 mph    
Visibility 8 miles    
Events Rain , Snow    
T = Trace of Precipitation, MM = Missing Value Source: NWS Daily Summary

Daily Weather History Graph

Daily Weather History Graph

Search for Another Location

Airport:

Trip Planner

Search our weather history database for the weather conditions in past years. The results will help you decide how hot, cold, wet, or windy it might be!

Date:

Astronomy

Mar. 14, 2014 Rise Set
Actual Time 7:56 AM EDT 7:47 PM EDT
Civil Twilight 7:27 AM EDT 8:16 PM EDT
Nautical Twilight 6:53 AM EDT 8:50 PM EDT
Astronomical Twilight 6:19 AM EDT 9:24 PM EDT
Moon 6:05 PM EDT (3/14) 6:39 AM EDT (3/14)
Length of Visible Light 12h 48m
Length of Day
11h 50m
Waxing Gibbous, 96% of the Moon is Illuminated
Mar 14
Waxing Gibbous
Mar 16
Full
Mar 23
Last Quarter
Mar 30
New
Apr 7
First Quarter

Hourly Weather History & Observations

Time (EDT) Temp. Windchill Dew Point Humidity Pressure Visibility Wind Dir Wind Speed Gust Speed Precip Events Conditions
12:53 AM 28.9 °F 21.9 °F 23.0 °F 78% 29.74 in 8.0 mi South 6.9 mph - N/A   Clear
1:53 AM 30.0 °F 22.4 °F 24.1 °F 79% 29.70 in 7.0 mi South 8.1 mph - N/A   Clear
2:53 AM 32.0 °F 24.8 °F 27.0 °F 82% 29.67 in 6.0 mi SSW 8.1 mph 18.4 mph N/A   Haze
3:53 AM 34.0 °F 27.2 °F 28.9 °F 82% 29.62 in 7.0 mi SSW 8.1 mph - N/A   Clear
4:53 AM 36.0 °F 28.0 °F 30.0 °F 79% 29.58 in 7.0 mi SSW 11.5 mph 17.3 mph N/A   Clear
5:53 AM 37.0 °F 30.4 °F 30.0 °F 76% 29.55 in 8.0 mi South 9.2 mph - N/A   Clear
6:53 AM 37.9 °F 30.5 °F 30.0 °F 73% 29.50 in 10.0 mi SSW 11.5 mph 19.6 mph N/A   Clear
7:53 AM 39.0 °F 34.0 °F 30.0 °F 70% 29.47 in 10.0 mi Variable 6.9 mph - N/A   Mostly Cloudy
8:53 AM 41.0 °F 35.8 °F 30.0 °F 65% 29.45 in 10.0 mi SSW 8.1 mph 19.6 mph N/A   Overcast
9:53 AM 41.0 °F 37.1 °F 30.0 °F 65% 29.45 in 10.0 mi Variable 5.8 mph - N/A   Overcast
10:53 AM 43.0 °F 38.2 °F 30.0 °F 60% 29.44 in 10.0 mi South 8.1 mph - N/A   Overcast
11:53 AM 44.1 °F 37.7 °F 28.9 °F 55% 29.44 in 10.0 mi SW 12.7 mph 20.7 mph N/A   Overcast
12:53 PM 45.0 °F 41.2 °F 30.0 °F 56% 29.41 in 10.0 mi Variable 6.9 mph 17.3 mph 0.00 in   Overcast
1:53 PM 46.0 °F 39.3 °F 28.9 °F 51% 29.40 in 10.0 mi WSW 16.1 mph 28.8 mph N/A   Overcast
2:53 PM 42.1 °F 36.6 °F 32.0 °F 67% 29.42 in 8.0 mi WSW 9.2 mph 18.4 mph 0.00 in Rain Light Rain
3:53 PM 41.0 °F 35.2 °F 35.1 °F 79% 29.41 in 10.0 mi SSW 9.2 mph 20.7 mph 0.01 in Rain Light Rain
4:53 PM 41.0 °F 33.9 °F 35.1 °F 79% 29.44 in 8.0 mi SW 12.7 mph 20.7 mph 0.00 in Rain Light Rain
5:43 PM 39.0 °F 34.8 °F 35.1 °F 86% 29.44 in 6.0 mi WSW 5.8 mph - 0.02 in Rain Light Rain
5:53 PM 39.9 °F 35.8 °F 35.1 °F 83% 29.47 in 7.0 mi WSW 5.8 mph - 0.02 in Rain Light Rain
6:53 PM 37.9 °F 30.5 °F 34.0 °F 86% 29.50 in 7.0 mi WNW 11.5 mph - 0.00 in Rain Light Rain
7:06 PM 37.9 °F 32.1 °F 34.0 °F 86% 29.49 in 6.0 mi NW 8.1 mph - 0.00 in Rain Light Rain
7:53 PM 37.0 °F 34.5 °F 34.0 °F 89% 29.54 in 5.0 mi WSW 3.5 mph - 0.01 in Rain Light Rain
8:53 PM 36.0 °F 32.1 °F 34.0 °F 93% 29.57 in 5.0 mi WSW 4.6 mph - 0.01 in   Overcast
9:53 PM 35.1 °F 29.3 °F 33.1 °F 92% 29.60 in 10.0 mi West 6.9 mph - 0.02 in Rain , Snow Light Rain
10:35 PM 35.1 °F 32.2 °F 33.1 °F 92% 29.60 in 9.0 mi SW 3.5 mph - 0.01 in   Overcast
10:53 PM 35.1 °F 32.2 °F 33.1 °F 92% 29.62 in 5.0 mi SW 3.5 mph - 0.01 in Rain Light Rain
11:18 PM 36.0 °F 30.3 °F 33.1 °F 89% 29.61 in 10.0 mi WSW 6.9 mph - 0.00 in   Overcast
11:53 PM 36.0 °F 28.5 °F 32.0 °F 86% 29.64 in 8.0 mi West 10.4 mph - 0.01 in Rain Light Rain